Hourly Weather Bolshie Dvorcy

Today, 18 June, Friday

Time Temperature Precipitation Wind Pressure Humidity
00:00 +17°C° 0 mm 3 mps 754 mmHg 83%
01:00 +16°C° 0 mm 2 mps 754 mmHg 84%
02:00 +16°C° 0 mm 2 mps 754 mmHg 85%
03:00 +16°C° 0 mm 2 mps 754 mmHg 86%
04:00 +16°C° 0 mm 2 mps 755 mmHg 87%
05:00 +15°C° 0 mm 2 mps 755 mmHg 88%
06:00 +17°C° 0 mm 2 mps 755 mmHg 82%
07:00 +19°C° 0 mm 3 mps 755 mmHg 77%
08:00 +21°C° 0 mm 3 mps 755 mmHg 71%
09:00 +22°C° 0 mm 3 mps 755 mmHg 66%
10:00 +25°C° 0 mm 3 mps 755 mmHg 61%
11:00 +26°C° 0 mm 4 mps 754 mmHg 56%
12:00 +26°C° 0 mm 4 mps 754 mmHg 54%
13:00 +27°C° 0 mm 4 mps 754 mmHg 51%
14:00 +27°C° 0 mm 4 mps 754 mmHg 48%
15:00 +27°C° 0 mm 4 mps 754 mmHg 52%
16:00 +27°C° 0 mm 3 mps 753 mmHg 55%
17:00 +27°C° 0 mm 3 mps 753 mmHg 58%
18:00 +26°C° 0 mm 3 mps 753 mmHg 66%
19:00 +24°C° 0 mm 3 mps 753 mmHg 74%
20:00 +22°C° 0 mm 3 mps 753 mmHg 81%
21:00 +21°C° 0 mm 3 mps 753 mmHg 83%
22:00 +20°C° 0 mm 3 mps 753 mmHg 84%
23:00 +19°C° 0 mm 3 mps 753 mmHg 86%

Tomorrow, 19 June, Saturday

Time Temperature Precipitation Wind Pressure Humidity
00:00 +18°C° 0 mm 3 mps 754 mmHg 89%
01:00 +18°C° 0 mm 2 mps 754 mmHg 92%
02:00 +18°C° 0 mm 2 mps 754 mmHg 95%
03:00 +18°C° 0 mm 2 mps 754 mmHg 95%
04:00 +18°C° 0 mm 2 mps 754 mmHg 96%
05:00 +18°C° 0 mm 2 mps 754 mmHg 97%
06:00 +20°C° 0 mm 2 mps 754 mmHg 91%
07:00 +21°C° 0 mm 3 mps 754 mmHg 85%
08:00 +24°C° 0 mm 3 mps 754 mmHg 79%
09:00 +25°C° 0 mm 4 mps 753 mmHg 73%
10:00 +26°C° 0 mm 4 mps 753 mmHg 67%
11:00 +27°C° 0 mm 4 mps 753 mmHg 61%
12:00 +27°C° 0 mm 4 mps 753 mmHg 59%
13:00 +28°C° 0 mm 4 mps 752 mmHg 56%
14:00 +28°C° 0 mm 4 mps 752 mmHg 53%
15:00 +27°C° 0.1 mm 4 mps 752 mmHg 60%
16:00 +26°C° 0.1 mm 4 mps 752 mmHg 66%
17:00 +25°C° 0.1 mm 3 mps 752 mmHg 73%
18:00 +24°C° 0.2 mm 3 mps 752 mmHg 77%
19:00 +24°C° 0.2 mm 3 mps 751 mmHg 80%
20:00 +23°C° 0.2 mm 2 mps 751 mmHg 84%
21:00 +21°C° 0 mm 2 mps 751 mmHg 87%
22:00 +20°C° 0 mm 2 mps 751 mmHg 89%
23:00 +19°C° 0 mm 3 mps 752 mmHg 92%

Day after tomorrow, 20 June, Sunday

Time Temperature Precipitation Wind Pressure Humidity
00:00 +19°C° 0 mm 2 mps 751 mmHg 93%
01:00 +18°C° 0 mm 2 mps 751 mmHg 94%
02:00 +18°C° 0 mm 2 mps 751 mmHg 95%
03:00 +18°C° 0 mm 2 mps 751 mmHg 96%
04:00 +18°C° 0 mm 2 mps 751 mmHg 96%
05:00 +19°C° 0 mm 2 mps 751 mmHg 96%
06:00 +19°C° 0 mm 2 mps 751 mmHg 95%
07:00 +20°C° 0 mm 2 mps 751 mmHg 93%
08:00 +21°C° 0 mm 2 mps 751 mmHg 92%
09:00 +22°C° 0.8 mm 3 mps 751 mmHg 87%
10:00 +25°C° 0.8 mm 4 mps 751 mmHg 83%
11:00 +26°C° 0.8 mm 4 mps 750 mmHg 78%
12:00 +26°C° 0.9 mm 4 mps 750 mmHg 76%
13:00 +27°C° 0.9 mm 4 mps 750 mmHg 74%
14:00 +27°C° 0.9 mm 3 mps 750 mmHg 71%
15:00 +28°C° 0.1 mm 3 mps 749 mmHg 69%
16:00 +28°C° 0.1 mm 3 mps 749 mmHg 67%
17:00 +28°C° 0.1 mm 3 mps 749 mmHg 65%
18:00 +27°C° 0.3 mm 3 mps 749 mmHg 70%
19:00 +25°C° 0.3 mm 4 mps 749 mmHg 75%
20:00 +23°C° 0.3 mm 4 mps 748 mmHg 80%
21:00 +21°C° 0 mm 3 mps 749 mmHg 83%
22:00 +20°C° 0 mm 3 mps 749 mmHg 85%
23:00 +19°C° 0 mm 3 mps 749 mmHg 87%

21 June, Monday

Time Temperature Precipitation Wind Pressure Humidity
00:00 +19°C° 0 mm 3 mps 749 mmHg 90%
01:00 +18°C° 0 mm 3 mps 748 mmHg 92%
02:00 +18°C° 0 mm 2 mps 748 mmHg 94%
03:00 +18°C° 0 mm 2 mps 748 mmHg 95%
04:00 +18°C° 0 mm 2 mps 748 mmHg 95%
05:00 +18°C° 0 mm 2 mps 748 mmHg 96%
06:00 +19°C° 0 mm 3 mps 748 mmHg 90%
07:00 +21°C° 0 mm 3 mps 748 mmHg 85%
08:00 +22°C° 0 mm 3 mps 748 mmHg 79%
09:00 +23°C° 0 mm 4 mps 747 mmHg 74%
10:00 +25°C° 0 mm 4 mps 747 mmHg 69%
11:00 +27°C° 0 mm 4 mps 747 mmHg 64%
12:00 +27°C° 0.1 mm 4 mps 747 mmHg 64%
13:00 +27°C° 0.1 mm 4 mps 746 mmHg 64%
14:00 +27°C° 0.1 mm 3 mps 746 mmHg 64%
15:00 +27°C° 0.3 mm 3 mps 746 mmHg 66%
16:00 +27°C° 0.3 mm 3 mps 746 mmHg 67%
17:00 +27°C° 0.3 mm 3 mps 746 mmHg 69%
18:00 +26°C° 0.3 mm 2 mps 746 mmHg 74%
19:00 +25°C° 0.3 mm 2 mps 746 mmHg 80%
20:00 +23°C° 0.3 mm 2 mps 746 mmHg 85%
21:00 +23°C° 0 mm 2 mps 746 mmHg 88%
22:00 +21°C° 0 mm 2 mps 746 mmHg 90%
23:00 +20°C° 0 mm 2 mps 746 mmHg 93%

22 June, Tuesday

Time Temperature Precipitation Wind Pressure Humidity
00:00 +20°C° 0 mm 2 mps 746 mmHg 93%
01:00 +19°C° 0 mm 2 mps 746 mmHg 94%
02:00 +19°C° 0 mm 2 mps 746 mmHg 95%
03:00 +19°C° 0 mm 2 mps 746 mmHg 95%
04:00 +19°C° 0 mm 2 mps 746 mmHg 95%
05:00 +19°C° 0 mm 2 mps 746 mmHg 96%
06:00 +21°C° 0 mm 3 mps 746 mmHg 91%
07:00 +22°C° 0 mm 3 mps 746 mmHg 86%
08:00 +25°C° 0 mm 4 mps 746 mmHg 81%
09:00 +26°C° 0 mm 4 mps 747 mmHg 74%
10:00 +28°C° 0 mm 4 mps 747 mmHg 66%
11:00 +29°C° 0 mm 4 mps 747 mmHg 59%
12:00 +30°C° 0 mm 4 mps 747 mmHg 56%
13:00 +32°C° 0 mm 4 mps 747 mmHg 52%
14:00 +33°C° 0 mm 3 mps 747 mmHg 49%
15:00 +33°C° 0 mm 3 mps 746 mmHg 52%
16:00 +33°C° 0 mm 3 mps 746 mmHg 54%
17:00 +31°C° 0 mm 2 mps 746 mmHg 57%
18:00 +30°C° 0 mm 2 mps 746 mmHg 62%
19:00 +28°C° 0 mm 2 mps 746 mmHg 68%
20:00 +27°C° 0 mm 2 mps 746 mmHg 74%
21:00 +26°C° 0.2 mm 2 mps 746 mmHg 78%
22:00 +24°C° 0.2 mm 2 mps 747 mmHg 82%
23:00 +23°C° 0.2 mm 1 mps 747 mmHg 87%

23 June, Wednesday

Time Temperature Precipitation Wind Pressure Humidity
00:00 +23°C° 0 mm 1 mps 747 mmHg 88%
01:00 +22°C° 0 mm 1 mps 747 mmHg 90%
02:00 +22°C° 0 mm 1 mps 747 mmHg 92%
03:00 +22°C° 0 mm 1 mps 747 mmHg 93%
04:00 +20°C° 0 mm 2 mps 747 mmHg 93%
05:00 +20°C° 0 mm 2 mps 747 mmHg 94%
06:00 +23°C° 0 mm 2 mps 748 mmHg 88%
07:00 +24°C° 0 mm 3 mps 748 mmHg 82%
08:00 +25°C° 0 mm 3 mps 748 mmHg 76%
09:00 +27°C° 0 mm 3 mps 748 mmHg 69%
10:00 +28°C° 0 mm 3 mps 748 mmHg 63%
11:00 +30°C° 0 mm 3 mps 748 mmHg 57%
12:00 +30°C° 0 mm 3 mps 748 mmHg 56%
13:00 +31°C° 0 mm 3 mps 748 mmHg 54%
14:00 +33°C° 0 mm 3 mps 748 mmHg 53%
15:00 +31°C° 0.1 mm 3 mps 747 mmHg 56%
16:00 +31°C° 0.1 mm 3 mps 747 mmHg 58%
17:00 +31°C° 0.1 mm 3 mps 747 mmHg 61%
18:00 +29°C° 0.1 mm 3 mps 747 mmHg 67%
19:00 +28°C° 0.1 mm 3 mps 747 mmHg 73%
20:00 +26°C° 0.1 mm 2 mps 747 mmHg 79%
21:00 +25°C° 0.1 mm 2 mps 747 mmHg 82%
22:00 +24°C° 0.1 mm 2 mps 747 mmHg 84%
23:00 +23°C° 0.1 mm 2 mps 748 mmHg 87%
Show more